Regional Weather Roundup
Issued by NWS

Home | Current Version | Previous Version | Graphics & Text | Print | Product List | Glossary On
Versions: 1 2 3 4 5 6 7 8 9 10 11 12 13 14 15 16 17 18 19 20 21 22 23 24 25 26 27 28 29 30 31 32 33 34 35 36 37 38 39 40 41 42 43 44 45 46 47 48 49 50
000
ASUS45 KSLC 290110
RWRUT

UTAH REGIONAL WEATHER ROUNDUP
NATIONAL WEATHER SERVICE SALT LAKE CITY UT
700 PM MDT SUN MAY 28 2017

UTZ001>011-023>025-290200-

NORTHERN UTAH

CITY           SKY/WX    TMP DP  RH WIND       PRES   REMARKS
BRIGHAM CITY   SUNNY     75  23  14 CALM      30.17F
HILL AFB       SUNNY     72  29  19 NW9       30.18F
LOGAN          SUNNY     75  37  25 N5        30.17F
OGDEN          SUNNY     73  28  18 NW9       30.16F
SALT LAKE CITY MOSUNNY   77  33  20 NW9       30.13F
TOOELE VALLEY  SUNNY     72  41  33 N9        30.16F
WENDOVER       SUNNY     76  24  14 E10       30.15F
HEBER CITY     SUNNY     73  19  13 SW6       30.17F
WEST JORDAN    SUNNY     73  46  38 NW10      30.16F

$$

UTZ011>015-024>027-290200-

CENTRAL/NORTHEAST UTAH

CITY           SKY/WX    TMP DP  RH WIND       PRES   REMARKS
PROVO AIRPORT  MOSUNNY   75  30  19 VRB6      30.14F
MOAB/CANYONLAN SUNNY     79  17  10 CALM      30.09F
DELTA          SUNNY     75  10   8 W3        30.14F
PRICE          PTSUNNY   72  26  18 VRB5      30.18S
ROOSEVELT      SUNNY     73  27  17 E8        30.19S
VERNAL         SUNNY     71  30  21 CALM      30.17F

$$

UTZ013>016-019>022-027-290200-

SOUTHERN UTAH

CITY           SKY/WX    TMP DP  RH WIND       PRES   REMARKS
BRYCE CANYON   MOSUNNY   67  23  19 NW6       30.27F
CEDAR CITY     SUNNY     78  21  12 N7        30.14F
MILFORD        MOSUNNY   78   9   7 N13       30.13F
ST GEORGE      CLEAR     90  21   8 VRB5      29.95F
HANKSVILLE     MOSUNNY   79  19  11 CALM      30.11F
BLANDING       PTSUNNY   74  22  14 NW10      30.22F

$$

REGIONAL REPORTS     COLORADO/ARIZONA

CITY           SKY/WX    TMP DP  RH WIND       PRES   REMARKS
CRAIG, CO      SUNNY     66  29  24 NW6       30.23F
GRAND JUNCTION SUNNY     76  23  14 W9        30.11F
RIFLE, CO      SUNNY     74  21  13 W7        30.15S
MONTROSE, CO   SUNNY     72  10   9 N6        30.17F
CORTEZ, CO     SUNNY     74   9   8 VRB5      30.16F
COLORADO CITY    N/A     84  25  11 W3        30.11F
PAGE, AZ       SUNNY     83  16   8 VRB5      30.06F
GRAND CANYON   MOSUNNY   73  21  14 NE8       30.20F
KINGMAN, AZ    SUNNY     90  23   9 N10G21    29.96S
FLAGSTAFF, AZ  PTSUNNY   70  18  13 SE3       30.19F

$$

REGIONAL REPORTS    NEVADA/IDAHO/WYOMING

CITY           SKY/WX    TMP DP  RH WIND       PRES   REMARKS
LAS VEGAS, NV  MOSUNNY   94   6   4 N9        29.90F
ELY, NY        SUNNY     74  20  13 NE7G18    30.19F
ELKO, NV       MOSUNNY   78  25  14 VRB6      30.15F
POCATELLO, ID  MOSUNNY   74  36  25 NW3       30.19F
BURLEY, ID     SUNNY     75  37  25 NE3       30.15F
FORT BRIDGER,    N/A     67  27  22 NW3G16    30.30S
EVANSTON, WY   SUNNY     65  32  29 N9        30.28F
ROCK SPRINGS,  SUNNY     64  22  20 S5        30.26S
KEMMERER, WY     N/A     63  28  27 SW9       30.30F

$$



USA.gov is the U.S. government's official web portal to all federal, state and local government web resources and services.